Starlink 30238

operational
NORAD ID: 57296 Int'l Des: 2023-096 Owner: SPXS Country: US Constellation: starlink
LEOCIRCULAR

Starlink 30238について

説明を読み込み中...

リアルタイム位置

3D地球を読み込み中...

次回通過

高度履歴

Altitude vs Time

uPlot chart will show altitude changes over time

軌道要素

1 57296U 23096G 25354.58336806 .00183881 00000-0 31359-2 0 9999
2 57296 42.9864 254.5122 0032894 200.9627 342.6896 15.49366708 5728
Epoch: Dec 20, 2025 • Age: 6 hours

現在のステータス

高度 439.4 km
速度 7.64 km/s
衛星直下点 28.58°N, 94.83°W
打ち上げ日 Jul 10, 2023
運用期間 2.4 years
タイプ internet

技術仕様

分類 Payload
質量 730.00 kg
乾燥質量 700.00 kg
総質量 730.00 kg
長さ 0.30 m
直径 4.10 m
スパン 29.00 m
形状 Box + pan
製造者 SPXS
バスタイプ Starlink V2M
フェーズステータス In Orbit
所有者/国 SPXS/US

大規模コンステレーション

Loading constellations...